Location: Rio de Janeiro
(22.9068°S, 43.1729°W)
Time: 12:50:56
(UTC-03:00)

Envisat - Pass Details

Date: 14 December 2023
Orbit: 762 x 764 km, 98.3° (Epoch: 03 March)

Event Time Altitude Azimuth Distance (km) Brightness Sun altitude
Exits shadow 03:24:31 37° 285° (WNW) 1,171 3.5 -19.9°
Maximum altitude 03:24:42 38° 279° (W) 1,168 3.5 -19.9°
Drops below altitude 10° 03:29:26 10° 212° (SSW) 2,316 5.5 -19.0°
Sets 03:31:55 0° 203° (SSW) 3,249 6.4 -18.5°
